NSZ3878 EKBI-LGSA

Flight info

Callsign NSZ3878
Flight time 3h 19m
Altitude 35000
Route ALS M852 EKERN DCT BUMIL DCT MILGU DCT OMELO DCT VOZ DCT PISAM DCT SASAL DCT VEBAL DCT GUBOK DCT NILKU DCT POD DCT RETRA DCT ADDER DCT DIMIS DCT IPTES UL604 PLH
Aircraft A320/M-SDE3FGHIRWY/LB1

Departure

Time 2026-05-05 08:37
Airport Billund Airport (EKBI)

Arrival

Time 2026-05-05 11:57
Airport Chania International Airport (LGSA)
Time Latitude Longitude Altitude Speed Heading
2026-05-05 08:09 55.74532 9.14618 217 ft 0 kts 357°
2026-05-05 08:10 55.74534 9.14683 218 ft 0 kts 357°
2026-05-05 08:28 55.74533 9.14683 220 ft 2 kts 357°
2026-05-05 08:29 55.74508 9.14686 216 ft 4 kts 356°
2026-05-05 08:29 55.74483 9.14688 216 ft 2 kts 356°
2026-05-05 08:29 55.74461 9.14688 216 ft 4 kts 20°
2026-05-05 08:30 55.74444 9.14629 218 ft 0 kts 86°
2026-05-05 08:31 55.74445 9.14665 218 ft 5 kts 86°
2026-05-05 08:32 55.74448 9.14749 216 ft 9 kts 86°
2026-05-05 08:32 55.74452 9.14881 216 ft 12 kts 87°
2026-05-05 08:32 55.74402 9.14979 216 ft 13 kts 172°
2026-05-05 08:32 55.74307 9.14989 221 ft 15 kts 177°
2026-05-05 08:33 55.74208 9.15027 220 ft 15 kts 130°
2026-05-05 08:33 55.74202 9.15218 216 ft 17 kts 86°
2026-05-05 08:33 55.74209 9.15435 220 ft 19 kts 87°
2026-05-05 08:33 55.74216 9.15674 216 ft 20 kts 87°
2026-05-05 08:34 55.74224 9.15931 216 ft 22 kts 86°
2026-05-05 08:34 55.74232 9.16205 216 ft 23 kts 87°
2026-05-05 08:34 55.74241 9.16496 216 ft 24 kts 86°
2026-05-05 08:34 55.74252 9.16802 223 ft 25 kts 86°
2026-05-05 08:35 55.74258 9.17012 216 ft 26 kts 87°
2026-05-05 08:35 55.74268 9.17333 216 ft 27 kts 87°
2026-05-05 08:35 55.74278 9.17665 216 ft 27 kts 86°
2026-05-05 08:35 55.74288 9.17966 216 ft 24 kts 88°
2026-05-05 08:36 55.74228 9.18137 220 ft 13 kts 163°
2026-05-05 08:36 55.74147 9.18141 216 ft 7 kts 199°
2026-05-05 08:36 55.74122 9.18062 216 ft 8 kts 266°
2026-05-05 08:36 55.74118 9.17906 216 ft 29 kts 267°
2026-05-05 08:37 55.74094 9.17108 216 ft 100 kts 267°
2026-05-05 08:37 55.74043 9.15511 220 ft 156 kts 267°
2026-05-05 08:37 55.73981 9.13436 620 ft 178 kts 271°
2026-05-05 08:37 55.74157 9.11237 1352 ft 183 kts 295°
2026-05-05 08:38 55.74872 9.09340 2077 ft 190 kts 312°
2026-05-05 08:38 55.75752 9.07510 2756 ft 200 kts 312°
2026-05-05 08:38 55.76685 9.05527 3196 ft 212 kts 311°
2026-05-05 08:38 55.77624 9.03498 3927 ft 213 kts 311°
2026-05-05 08:39 55.78562 9.01442 4581 ft 215 kts 310°
2026-05-05 08:39 55.79321 8.99144 5222 ft 221 kts 283°
2026-05-05 08:39 55.79133 8.96437 5860 ft 229 kts 242°
2026-05-05 08:39 55.77969 8.94523 6503 ft 236 kts 202°
2026-05-05 08:40 55.76341 8.94333 7125 ft 241 kts 163°
2026-05-05 08:40 55.74871 8.95784 7741 ft 247 kts 146°
2026-05-05 08:40 55.73427 8.97618 7966 ft 270 kts 145°
2026-05-05 08:40 55.71834 8.99694 8308 ft 287 kts 146°
2026-05-05 08:41 55.70207 9.01817 8934 ft 293 kts 147°
2026-05-05 08:41 55.68569 9.03926 9589 ft 297 kts 148°
2026-05-05 08:41 55.66879 9.06080 10191 ft 303 kts 148°
2026-05-05 08:41 55.65097 9.08319 10330 ft 325 kts 149°
2026-05-05 08:42 55.63186 9.10699 10464 ft 345 kts 148°
2026-05-05 08:42 55.61191 9.13176 10863 ft 354 kts 148°
2026-05-05 08:42 55.59163 9.15697 11414 ft 358 kts 148°
2026-05-05 08:42 55.57117 9.18242 11980 ft 361 kts 148°
2026-05-05 08:43 55.55026 9.20840 12549 ft 364 kts 149°
2026-05-05 08:43 55.52974 9.23391 13078 ft 367 kts 149°
2026-05-05 08:43 55.50875 9.25998 13648 ft 371 kts 149°
2026-05-05 08:43 55.48755 9.28624 14163 ft 374 kts 149°
2026-05-05 08:44 55.46620 9.31264 14668 ft 376 kts 149°
2026-05-05 08:44 55.44469 9.33917 15165 ft 379 kts 149°
2026-05-05 08:44 55.42302 9.36584 15638 ft 381 kts 149°
2026-05-05 08:44 55.40122 9.39265 16143 ft 383 kts 149°
2026-05-05 08:45 55.37930 9.41961 16634 ft 386 kts 149°
2026-05-05 08:45 55.35724 9.44675 17105 ft 388 kts 149°
2026-05-05 08:45 55.33506 9.47404 17616 ft 390 kts 149°
2026-05-05 08:45 55.31245 9.50178 18106 ft 393 kts 149°
2026-05-05 08:46 55.28997 9.52927 18560 ft 395 kts 149°
2026-05-05 08:46 55.26732 9.55683 19002 ft 397 kts 149°
2026-05-05 08:46 55.24451 9.58454 19441 ft 400 kts 149°
2026-05-05 08:46 55.22161 9.61233 19880 ft 402 kts 149°
2026-05-05 08:47 55.19856 9.64033 20313 ft 404 kts 149°
2026-05-05 08:47 55.17541 9.66848 20738 ft 406 kts 149°
2026-05-05 08:47 55.15212 9.69680 21145 ft 409 kts 149°
2026-05-05 08:47 55.12903 9.72478 21520 ft 411 kts 149°
2026-05-05 08:48 55.10550 9.75325 21923 ft 412 kts 149°
2026-05-05 08:48 55.08150 9.78216 22313 ft 414 kts 149°
2026-05-05 08:48 55.05771 9.81073 22704 ft 416 kts 149°
2026-05-05 08:48 55.03413 9.83906 23085 ft 418 kts 149°
2026-05-05 08:49 55.01011 9.86790 23466 ft 420 kts 149°
2026-05-05 08:49 54.98603 9.89682 23820 ft 421 kts 150°
2026-05-05 08:49 54.96158 9.92617 24191 ft 422 kts 150°
2026-05-05 08:49 54.93639 9.95174 24509 ft 417 kts 160°
2026-05-05 08:50 54.90928 9.96865 24807 ft 412 kts 171°
2026-05-05 08:50 54.88115 9.97652 25102 ft 408 kts 181°
2026-05-05 08:50 54.85293 9.97545 25360 ft 404 kts 191°
2026-05-05 08:50 54.82531 9.96711 25669 ft 403 kts 195°
2026-05-05 08:51 54.79775 9.95799 25986 ft 404 kts 194°
2026-05-05 08:51 54.77007 9.94891 26279 ft 406 kts 194°
2026-05-05 08:51 54.74226 9.93981 26570 ft 408 kts 194°
2026-05-05 08:51 54.71432 9.93073 26861 ft 410 kts 194°
2026-05-05 08:52 54.68625 9.92168 27150 ft 411 kts 194°
2026-05-05 08:52 54.65804 9.91255 27439 ft 413 kts 194°
2026-05-05 08:52 54.62969 9.90339 27730 ft 415 kts 194°
2026-05-05 08:52 54.60129 9.89429 28089 ft 415 kts 194°
2026-05-05 08:53 54.57297 9.88525 28534 ft 413 kts 194°
2026-05-05 08:53 54.54450 9.87839 28956 ft 415 kts 186°
2026-05-05 08:53 54.51552 9.88044 29362 ft 420 kts 176°
2026-05-05 08:53 54.48735 9.89193 29765 ft 425 kts 165°
2026-05-05 08:54 54.46021 9.91279 30143 ft 431 kts 154°
2026-05-05 08:54 54.43456 9.93976 30476 ft 432 kts 153°
2026-05-05 08:54 54.40901 9.96691 30806 ft 432 kts 153°
2026-05-05 08:54 54.38344 9.99406 31145 ft 431 kts 153°
2026-05-05 08:55 54.35764 10.02142 31488 ft 431 kts 153°
2026-05-05 08:55 54.33215 10.04841 31813 ft 431 kts 153°
2026-05-05 08:55 54.30666 10.07532 32143 ft 430 kts 153°
2026-05-05 08:55 54.28118 10.10219 32475 ft 430 kts 153°
2026-05-05 08:56 54.25569 10.12903 32810 ft 430 kts 153°
2026-05-05 08:56 54.23023 10.15577 33144 ft 429 kts 153°
2026-05-05 08:56 54.20479 10.18245 33470 ft 429 kts 153°
2026-05-05 08:56 54.17936 10.20908 33780 ft 429 kts 153°
2026-05-05 08:57 54.15396 10.23564 34063 ft 428 kts 153°
2026-05-05 08:57 54.12854 10.26219 34299 ft 428 kts 153°
2026-05-05 08:57 54.10315 10.28869 34540 ft 428 kts 153°
2026-05-05 08:57 54.07806 10.31485 34764 ft 428 kts 153°
2026-05-05 08:58 54.05262 10.34132 34901 ft 429 kts 153°
2026-05-05 08:58 54.00073 10.39507 34962 ft 440 kts 153°
2026-05-05 08:59 53.94791 10.44969 34962 ft 446 kts 153°
2026-05-05 08:59 53.89485 10.50463 34968 ft 447 kts 153°
2026-05-05 09:00 53.84170 10.55935 34973 ft 447 kts 153°
2026-05-05 09:00 53.78860 10.61384 34975 ft 446 kts 153°
2026-05-05 09:01 53.73548 10.66818 34963 ft 447 kts 154°
2026-05-05 09:01 53.68225 10.72241 34963 ft 447 kts 154°
2026-05-05 09:02 53.62892 10.77666 34960 ft 447 kts 154°
2026-05-05 09:02 53.57570 10.83055 34953 ft 447 kts 154°
2026-05-05 09:03 53.52239 10.88452 34942 ft 447 kts 154°
2026-05-05 09:03 53.46908 10.93829 34900 ft 447 kts 154°
2026-05-05 09:04 53.41560 10.99194 34898 ft 448 kts 154°
2026-05-05 09:04 53.36202 11.04552 34904 ft 449 kts 154°
2026-05-05 09:05 53.30833 11.09916 34924 ft 450 kts 154°
2026-05-05 09:05 53.25460 11.15271 34913 ft 450 kts 154°
2026-05-05 09:06 53.20085 11.20611 34890 ft 449 kts 155°
2026-05-05 09:06 53.14703 11.25933 34907 ft 450 kts 155°
2026-05-05 09:07 53.09366 11.31374 34904 ft 451 kts 152°
2026-05-05 09:07 53.04232 11.37418 34908 ft 453 kts 149°
2026-05-05 09:08 52.99163 11.43623 34906 ft 452 kts 149°
2026-05-05 09:08 52.94052 11.49695 34910 ft 451 kts 150°
2026-05-05 09:09 52.88907 11.55644 34912 ft 451 kts 151°
2026-05-05 09:09 52.83755 11.61563 34907 ft 451 kts 151°
2026-05-05 09:10 52.78611 11.67496 34887 ft 451 kts 150°
2026-05-05 09:10 52.73473 11.73422 34895 ft 450 kts 151°
2026-05-05 09:11 52.68337 11.79332 34898 ft 450 kts 151°
2026-05-05 09:11 52.63201 11.85223 34885 ft 450 kts 151°
2026-05-05 09:12 52.58093 11.91053 34889 ft 450 kts 151°
2026-05-05 09:12 52.52952 11.96913 34890 ft 450 kts 151°
2026-05-05 09:13 52.47806 12.02755 34871 ft 450 kts 151°
2026-05-05 09:13 52.42658 12.08577 34893 ft 449 kts 151°
2026-05-05 09:14 52.37481 12.14429 34877 ft 449 kts 151°
2026-05-05 09:14 52.32371 12.20183 34873 ft 449 kts 151°
2026-05-05 09:15 52.27219 12.25973 34874 ft 450 kts 151°
2026-05-05 09:15 52.22058 12.31745 34881 ft 450 kts 151°
2026-05-05 09:16 52.16893 12.37509 34889 ft 450 kts 151°
2026-05-05 09:16 52.11726 12.43258 34884 ft 450 kts 151°
2026-05-05 09:17 52.06554 12.49008 34863 ft 451 kts 151°
2026-05-05 09:17 52.02243 12.53777 34869 ft 452 kts 151°
2026-05-05 09:18 51.97050 12.59517 34869 ft 452 kts 151°
2026-05-05 09:18 51.91852 12.65246 34877 ft 452 kts 151°
2026-05-05 09:19 51.86641 12.70959 34884 ft 452 kts 151°
2026-05-05 09:19 51.81434 12.76668 34848 ft 452 kts 151°
2026-05-05 09:20 51.76219 12.82365 34859 ft 453 kts 152°
2026-05-05 09:20 51.70985 12.88044 34871 ft 454 kts 152°
2026-05-05 09:21 51.65745 12.93718 34873 ft 454 kts 152°
2026-05-05 09:21 51.60507 12.99399 34881 ft 454 kts 152°
2026-05-05 09:22 51.55390 13.05400 34869 ft 459 kts 145°
2026-05-05 09:22 51.50508 13.11996 34872 ft 459 kts 145°
2026-05-05 09:23 51.45623 13.18563 34884 ft 458 kts 145°
2026-05-05 09:23 51.40737 13.25115 34897 ft 458 kts 145°
2026-05-05 09:24 51.35853 13.31647 34903 ft 457 kts 145°
2026-05-05 09:24 51.30965 13.38161 34906 ft 457 kts 145°
2026-05-05 09:25 51.26071 13.44651 34893 ft 457 kts 145°
2026-05-05 09:25 51.21189 13.51112 34908 ft 455 kts 145°
2026-05-05 09:26 51.16325 13.57549 34915 ft 454 kts 145°
2026-05-05 09:26 51.11441 13.64005 34916 ft 453 kts 145°
2026-05-05 09:27 51.06589 13.70388 34914 ft 452 kts 145°
2026-05-05 09:27 51.01731 13.76738 34910 ft 452 kts 145°
2026-05-05 09:28 50.96870 13.83073 34898 ft 452 kts 145°
2026-05-05 09:28 50.92016 13.89396 34902 ft 451 kts 145°
2026-05-05 09:29 50.87164 13.95699 34899 ft 451 kts 145°
2026-05-05 09:29 50.82047 14.01249 34892 ft 441 kts 159°
2026-05-05 09:30 50.76445 14.05131 34887 ft 440 kts 161°
2026-05-05 09:30 50.70838 14.08973 34873 ft 439 kts 161°
2026-05-05 09:31 50.65231 14.12815 34865 ft 439 kts 161°
2026-05-05 09:31 50.59630 14.16648 34864 ft 439 kts 161°
2026-05-05 09:32 50.54027 14.20477 34862 ft 439 kts 161°
2026-05-05 09:32 50.48416 14.24279 34869 ft 439 kts 161°
2026-05-05 09:33 50.42800 14.28079 34861 ft 439 kts 161°
2026-05-05 09:33 50.37192 14.31874 34868 ft 439 kts 161°
2026-05-05 09:34 50.31586 14.35662 34873 ft 439 kts 161°
2026-05-05 09:34 50.25974 14.39427 34862 ft 439 kts 161°
2026-05-05 09:35 50.20363 14.43191 34862 ft 439 kts 161°
2026-05-05 09:35 50.11933 14.48825 34864 ft 440 kts 161°
2026-05-05 09:36 50.06306 14.52573 34864 ft 440 kts 161°
2026-05-05 09:36 50.00679 14.56322 34864 ft 440 kts 161°
2026-05-05 09:37 49.95050 14.60059 34848 ft 440 kts 161°
2026-05-05 09:37 49.89418 14.63776 34852 ft 440 kts 161°
2026-05-05 09:38 49.83778 14.67488 34840 ft 440 kts 161°
2026-05-05 09:38 49.78177 14.71167 34846 ft 440 kts 161°
2026-05-05 09:39 49.72541 14.74873 34849 ft 440 kts 160°
2026-05-05 09:39 49.66903 14.78566 34846 ft 440 kts 161°
2026-05-05 09:40 49.61263 14.82238 34863 ft 440 kts 161°
2026-05-05 09:40 49.55623 14.85910 34861 ft 440 kts 161°
2026-05-05 09:41 49.50036 14.89782 34859 ft 442 kts 157°
2026-05-05 09:41 49.44606 14.94237 34834 ft 443 kts 154°
2026-05-05 09:42 49.39213 14.98818 34843 ft 443 kts 154°
2026-05-05 09:42 49.33782 15.03279 34847 ft 443 kts 155°
2026-05-05 09:43 49.28324 15.07652 34846 ft 443 kts 155°
2026-05-05 09:43 49.22865 15.12010 34850 ft 442 kts 155°
2026-05-05 09:44 49.17409 15.16364 34850 ft 443 kts 155°
2026-05-05 09:44 49.11949 15.20716 34842 ft 442 kts 155°
2026-05-05 09:45 49.06491 15.25062 34844 ft 443 kts 155°
2026-05-05 09:45 49.01031 15.29418 34849 ft 443 kts 155°
2026-05-05 09:46 48.95564 15.33764 34857 ft 443 kts 155°
2026-05-05 09:46 48.90125 15.38058 34856 ft 444 kts 155°
2026-05-05 09:47 48.84589 15.42177 34871 ft 442 kts 158°
2026-05-05 09:47 48.78977 15.46003 34862 ft 442 kts 159°
2026-05-05 09:48 48.73359 15.49816 34857 ft 443 kts 158°
2026-05-05 09:48 48.67756 15.53692 34860 ft 443 kts 158°
2026-05-05 09:49 48.62156 15.57594 34863 ft 443 kts 158°
2026-05-05 09:49 48.56546 15.61475 34870 ft 444 kts 158°
2026-05-05 09:50 48.50930 15.65339 34870 ft 444 kts 158°
2026-05-05 09:50 48.45307 15.69211 34876 ft 444 kts 158°
2026-05-05 09:51 48.39684 15.73067 34867 ft 444 kts 158°
2026-05-05 09:51 48.34053 15.76917 34866 ft 445 kts 158°
2026-05-05 09:52 48.28417 15.80758 34876 ft 445 kts 158°
2026-05-05 09:52 48.22779 15.84592 34869 ft 445 kts 158°
2026-05-05 09:53 48.17147 15.88422 34866 ft 444 kts 158°
2026-05-05 09:53 48.11549 15.92203 34869 ft 444 kts 158°
2026-05-05 09:54 48.05912 15.96011 34864 ft 444 kts 158°
2026-05-05 09:54 48.00278 15.99812 34870 ft 444 kts 158°
2026-05-05 09:55 47.94646 16.03610 34871 ft 444 kts 158°
2026-05-05 09:55 47.89012 16.07396 34881 ft 444 kts 158°
2026-05-05 09:56 47.83370 16.11164 34880 ft 444 kts 159°
2026-05-05 09:56 47.77729 16.14926 34879 ft 444 kts 159°
2026-05-05 09:57 47.72092 16.18683 34883 ft 444 kts 159°
2026-05-05 09:57 47.66454 16.22431 34892 ft 444 kts 159°
2026-05-05 09:58 47.60816 16.26165 34890 ft 444 kts 158°
2026-05-05 09:58 47.55179 16.29899 34905 ft 444 kts 158°
2026-05-05 09:59 47.49542 16.33626 34904 ft 444 kts 159°
2026-05-05 09:59 47.43904 16.37341 34907 ft 443 kts 159°
2026-05-05 10:00 47.38265 16.41036 34907 ft 443 kts 159°
2026-05-05 10:00 47.32660 16.44703 34915 ft 444 kts 159°
2026-05-05 10:01 47.27012 16.48388 34927 ft 444 kts 159°
2026-05-05 10:01 47.21360 16.52080 34921 ft 444 kts 159°
2026-05-05 10:02 47.15704 16.55764 34926 ft 445 kts 159°
2026-05-05 10:02 47.10957 16.58839 34927 ft 445 kts 159°
2026-05-05 10:03 47.05294 16.62497 34931 ft 445 kts 159°
2026-05-05 10:03 46.99670 16.66134 34930 ft 445 kts 159°
2026-05-05 10:04 46.94003 16.69784 34933 ft 445 kts 159°
2026-05-05 10:04 46.88330 16.73430 34939 ft 445 kts 159°
2026-05-05 10:05 46.82655 16.77069 34951 ft 446 kts 159°
2026-05-05 10:05 46.76975 16.80698 34954 ft 445 kts 159°
2026-05-05 10:06 46.71300 16.84325 34959 ft 446 kts 159°
2026-05-05 10:06 46.65612 16.87940 34962 ft 446 kts 159°
2026-05-05 10:07 46.59920 16.91559 34970 ft 447 kts 159°
2026-05-05 10:07 46.54219 16.95178 34979 ft 447 kts 160°
2026-05-05 10:08 46.48514 16.98786 34976 ft 448 kts 159°
2026-05-05 10:08 46.42839 17.02361 34991 ft 448 kts 159°
2026-05-05 10:09 46.37122 17.05959 34994 ft 448 kts 159°
2026-05-05 10:09 46.31404 17.09548 34993 ft 448 kts 159°
2026-05-05 10:10 46.25684 17.13135 34985 ft 448 kts 159°
2026-05-05 10:10 46.19957 17.16723 34992 ft 449 kts 159°
2026-05-05 10:11 46.14219 17.20299 35001 ft 449 kts 159°
2026-05-05 10:11 46.08480 17.23866 35005 ft 449 kts 159°
2026-05-05 10:12 46.02741 17.27432 34998 ft 449 kts 159°
2026-05-05 10:12 45.96992 17.30986 34992 ft 450 kts 159°
2026-05-05 10:13 45.91225 17.34493 34996 ft 450 kts 160°
2026-05-05 10:13 45.85450 17.37968 35006 ft 450 kts 160°
2026-05-05 10:14 45.79668 17.41447 35006 ft 451 kts 160°
2026-05-05 10:14 45.73932 17.44916 35009 ft 451 kts 160°
2026-05-05 10:15 45.68154 17.48401 35011 ft 451 kts 160°
2026-05-05 10:15 45.62368 17.51871 35013 ft 451 kts 160°
2026-05-05 10:16 45.56581 17.55323 35007 ft 451 kts 160°
2026-05-05 10:16 45.50785 17.58780 35009 ft 452 kts 160°
2026-05-05 10:17 45.44987 17.62239 35011 ft 452 kts 160°
2026-05-05 10:17 45.39189 17.65696 35018 ft 452 kts 160°
2026-05-05 10:18 45.33384 17.69139 35015 ft 452 kts 160°
2026-05-05 10:18 45.27577 17.72571 35016 ft 452 kts 160°
2026-05-05 10:19 45.21765 17.75999 35022 ft 452 kts 160°
2026-05-05 10:19 45.15953 17.79428 35014 ft 452 kts 160°
2026-05-05 10:20 45.10135 17.82849 35015 ft 453 kts 160°
2026-05-05 10:20 45.04313 17.86269 35013 ft 453 kts 161°
2026-05-05 10:21 44.98459 17.89404 35017 ft 453 kts 163°
2026-05-05 10:21 44.92509 17.92312 35007 ft 453 kts 164°
2026-05-05 10:22 44.86556 17.95234 35012 ft 453 kts 163°
2026-05-05 10:22 44.80618 17.98234 35018 ft 453 kts 163°
2026-05-05 10:23 44.74682 18.01247 35019 ft 453 kts 163°
2026-05-05 10:23 44.68744 18.04238 35025 ft 453 kts 163°
2026-05-05 10:24 44.62799 18.07219 35026 ft 454 kts 163°
2026-05-05 10:24 44.56847 18.10192 35020 ft 454 kts 163°
2026-05-05 10:25 44.50887 18.13169 35019 ft 455 kts 163°
2026-05-05 10:25 44.44968 18.16116 35027 ft 455 kts 163°
2026-05-05 10:26 44.39008 18.19084 35040 ft 455 kts 163°
2026-05-05 10:26 44.33048 18.22042 35046 ft 454 kts 163°
2026-05-05 10:27 44.27086 18.24989 35034 ft 455 kts 163°
2026-05-05 10:27 44.21118 18.27934 35045 ft 455 kts 163°
2026-05-05 10:28 44.15146 18.30883 35051 ft 456 kts 163°
2026-05-05 10:28 44.09168 18.33830 35055 ft 456 kts 163°
2026-05-05 10:29 44.03182 18.36765 35057 ft 456 kts 163°
2026-05-05 10:29 43.97189 18.39690 35050 ft 457 kts 163°
2026-05-05 10:30 43.91192 18.42621 35049 ft 457 kts 163°
2026-05-05 10:30 43.85192 18.45556 35042 ft 457 kts 164°
2026-05-05 10:31 43.79182 18.48489 35044 ft 459 kts 164°
2026-05-05 10:31 43.73154 18.51424 35041 ft 459 kts 164°
2026-05-05 10:32 43.67157 18.54322 35063 ft 460 kts 165°
2026-05-05 10:32 43.61111 18.57235 35068 ft 461 kts 164°
2026-05-05 10:33 43.55056 18.60163 35071 ft 461 kts 164°
2026-05-05 10:33 43.48992 18.63092 35077 ft 462 kts 164°
2026-05-05 10:34 43.42919 18.66013 35079 ft 463 kts 165°
2026-05-05 10:34 43.36830 18.68928 35070 ft 464 kts 165°
2026-05-05 10:35 43.30769 18.72035 35083 ft 467 kts 161°
2026-05-05 10:35 43.24804 18.75600 35091 ft 468 kts 160°
2026-05-05 10:36 43.18865 18.79256 35092 ft 468 kts 160°
2026-05-05 10:36 43.12894 18.82812 35085 ft 468 kts 161°
2026-05-05 10:37 43.06933 18.86266 35097 ft 469 kts 161°
2026-05-05 10:37 43.00921 18.89739 35095 ft 470 kts 161°
2026-05-05 10:38 42.94902 18.93239 35096 ft 471 kts 161°
2026-05-05 10:38 42.88871 18.96748 35097 ft 471 kts 161°
2026-05-05 10:39 42.82832 19.00258 35114 ft 472 kts 161°
2026-05-05 10:39 42.76787 19.03751 35107 ft 472 kts 162°
2026-05-05 10:40 42.70728 19.07227 35104 ft 473 kts 162°
2026-05-05 10:40 42.64660 19.10704 35117 ft 473 kts 162°
2026-05-05 10:41 42.58591 19.14201 35111 ft 474 kts 162°
2026-05-05 10:41 42.52541 19.17674 35109 ft 476 kts 162°
2026-05-05 10:42 42.43360 19.22921 35120 ft 478 kts 162°
2026-05-05 10:43 42.37216 19.26395 35113 ft 478 kts 163°
2026-05-05 10:43 42.30996 19.29570 35119 ft 478 kts 165°
2026-05-05 10:44 42.24736 19.32584 35122 ft 478 kts 166°
2026-05-05 10:44 42.18507 19.35795 35124 ft 481 kts 162°
2026-05-05 10:45 42.12380 19.39445 35117 ft 482 kts 160°
2026-05-05 10:45 42.06262 19.43175 35124 ft 483 kts 161°
2026-05-05 10:46 42.00153 19.46780 35139 ft 483 kts 161°
2026-05-05 10:46 41.93975 19.50334 35120 ft 483 kts 161°
2026-05-05 10:47 41.87785 19.53879 35121 ft 484 kts 161°
2026-05-05 10:47 41.81593 19.57461 35124 ft 485 kts 161°
2026-05-05 10:48 41.75396 19.61054 35128 ft 485 kts 161°
2026-05-05 10:48 41.69194 19.64634 35126 ft 486 kts 161°
2026-05-05 10:49 41.62982 19.68194 35127 ft 486 kts 161°
2026-05-05 10:49 41.56770 19.71750 35135 ft 486 kts 161°
2026-05-05 10:50 41.50557 19.75304 35134 ft 486 kts 161°
2026-05-05 10:50 41.44385 19.78821 35147 ft 485 kts 161°
2026-05-05 10:51 41.38179 19.82361 35147 ft 485 kts 160°
2026-05-05 10:51 41.31961 19.85892 35138 ft 486 kts 160°
2026-05-05 10:52 41.25741 19.89419 35125 ft 486 kts 160°
2026-05-05 10:52 41.19516 19.92947 35127 ft 486 kts 160°
2026-05-05 10:53 41.13288 19.96462 35125 ft 486 kts 160°
2026-05-05 10:53 41.07061 19.99969 35121 ft 486 kts 160°
2026-05-05 10:54 41.00832 20.03478 35120 ft 486 kts 160°
2026-05-05 10:54 40.94604 20.06977 35121 ft 486 kts 161°
2026-05-05 10:55 40.88372 20.10462 35118 ft 486 kts 161°
2026-05-05 10:55 40.82140 20.13936 35128 ft 486 kts 160°
2026-05-05 10:56 40.75940 20.17387 35104 ft 487 kts 160°
2026-05-05 10:56 40.69686 20.20871 35100 ft 488 kts 160°
2026-05-05 10:57 40.63425 20.24351 35096 ft 489 kts 160°
2026-05-05 10:57 40.57156 20.27835 35087 ft 489 kts 160°
2026-05-05 10:58 40.50889 20.31343 35098 ft 490 kts 159°
2026-05-05 10:58 40.44731 20.35210 35105 ft 491 kts 156°
2026-05-05 10:59 40.38637 20.39295 35109 ft 492 kts 156°
2026-05-05 10:59 40.33565 20.42653 35101 ft 491 kts 156°
2026-05-05 11:00 40.27436 20.46603 35117 ft 490 kts 157°
2026-05-05 11:00 40.21292 20.50503 35115 ft 491 kts 157°
2026-05-05 11:01 40.15137 20.54415 35109 ft 493 kts 156°
2026-05-05 11:01 40.08979 20.58363 35102 ft 493 kts 156°
2026-05-05 11:02 40.02837 20.62352 35110 ft 493 kts 155°
2026-05-05 11:02 39.96738 20.66469 35121 ft 494 kts 155°
2026-05-05 11:03 39.90640 20.70599 35132 ft 494 kts 155°
2026-05-05 11:03 39.84532 20.74687 35129 ft 493 kts 155°
2026-05-05 11:04 39.78456 20.78712 35146 ft 493 kts 156°
2026-05-05 11:04 39.72344 20.82768 35166 ft 493 kts 155°
2026-05-05 11:05 39.66232 20.86833 35150 ft 494 kts 155°
2026-05-05 11:05 39.60112 20.90895 35132 ft 494 kts 155°
2026-05-05 11:06 39.53978 20.94939 35140 ft 495 kts 155°
2026-05-05 11:06 39.47839 20.98971 35143 ft 495 kts 155°
2026-05-05 11:07 39.41701 21.03011 35146 ft 495 kts 155°
2026-05-05 11:07 39.35559 21.07051 35142 ft 495 kts 155°
2026-05-05 11:08 39.29415 21.11082 35153 ft 495 kts 155°
2026-05-05 11:08 39.23272 21.15104 35170 ft 495 kts 155°
2026-05-05 11:09 39.17164 21.19090 35166 ft 495 kts 155°
2026-05-05 11:09 39.11007 21.23092 35154 ft 496 kts 155°
2026-05-05 11:10 39.04851 21.27089 35155 ft 496 kts 155°
2026-05-05 11:10 38.98694 21.31084 35149 ft 496 kts 155°
2026-05-05 11:11 38.92542 21.35077 35146 ft 495 kts 155°
2026-05-05 11:11 38.86387 21.39055 35143 ft 495 kts 155°
2026-05-05 11:12 38.80233 21.43017 35140 ft 495 kts 155°
2026-05-05 11:12 38.74087 21.46975 35142 ft 495 kts 155°
2026-05-05 11:13 38.67942 21.50945 35147 ft 495 kts 155°
2026-05-05 11:13 38.61829 21.55008 35143 ft 495 kts 154°
2026-05-05 11:14 38.55729 21.59092 35152 ft 495 kts 154°
2026-05-05 11:14 38.49615 21.63145 35155 ft 495 kts 155°
2026-05-05 11:15 38.43495 21.67177 35157 ft 495 kts 155°
2026-05-05 11:15 38.37374 21.71200 35150 ft 494 kts 155°
2026-05-05 11:16 38.31300 21.75186 35154 ft 494 kts 155°
2026-05-05 11:16 38.25184 21.79192 35171 ft 494 kts 155°
2026-05-05 11:17 38.19072 21.83206 35161 ft 495 kts 154°
2026-05-05 11:17 38.12954 21.87207 35147 ft 494 kts 155°
2026-05-05 11:18 38.06831 21.91190 35157 ft 494 kts 155°
2026-05-05 11:18 38.00707 21.95169 35153 ft 494 kts 155°
2026-05-05 11:19 37.94590 21.99146 35148 ft 494 kts 155°
2026-05-05 11:19 37.88474 22.03110 35142 ft 493 kts 155°
2026-05-05 11:20 37.82368 22.07057 35138 ft 493 kts 155°
2026-05-05 11:20 37.76262 22.11000 35143 ft 493 kts 155°
2026-05-05 11:21 37.70154 22.14937 35147 ft 493 kts 155°
2026-05-05 11:21 37.64039 22.18865 35133 ft 493 kts 155°
2026-05-05 11:22 37.57966 22.22773 35133 ft 493 kts 155°
2026-05-05 11:22 37.51844 22.26692 35133 ft 493 kts 155°
2026-05-05 11:23 37.45726 22.30602 35137 ft 493 kts 155°
2026-05-05 11:23 37.39607 22.34510 35115 ft 493 kts 155°
2026-05-05 11:24 37.33486 22.38403 35125 ft 493 kts 155°
2026-05-05 11:24 37.27372 22.42286 35134 ft 493 kts 155°
2026-05-05 11:25 37.21258 22.46163 35147 ft 492 kts 155°
2026-05-05 11:25 37.15134 22.50025 35148 ft 493 kts 155°
2026-05-05 11:26 37.09009 22.53875 35134 ft 492 kts 155°
2026-05-05 11:26 37.02887 22.57731 35139 ft 493 kts 155°
2026-05-05 11:27 36.96764 22.61580 35137 ft 492 kts 155°
2026-05-05 11:27 36.90641 22.65422 35143 ft 492 kts 155°
2026-05-05 11:28 36.84520 22.69253 35130 ft 492 kts 155°
2026-05-05 11:28 36.78396 22.73071 35143 ft 492 kts 155°
2026-05-05 11:29 36.72273 22.76887 35154 ft 492 kts 155°
2026-05-05 11:29 36.66151 22.80708 35158 ft 492 kts 155°
2026-05-05 11:30 36.60024 22.84509 34840 ft 490 kts 155°
2026-05-05 11:30 36.56984 22.86393 34422 ft 487 kts 155°
2026-05-05 11:30 36.53966 22.88266 33977 ft 483 kts 155°
2026-05-05 11:30 36.51010 22.90099 33495 ft 480 kts 155°
2026-05-05 11:31 36.47989 22.91973 33000 ft 477 kts 155°
2026-05-05 11:31 36.45024 22.93809 32509 ft 475 kts 155°
2026-05-05 11:31 36.42113 22.95607 32027 ft 472 kts 155°
2026-05-05 11:31 36.39179 22.97417 31546 ft 470 kts 155°
2026-05-05 11:32 36.36257 22.99218 31073 ft 468 kts 155°
2026-05-05 11:32 36.33353 23.01010 30614 ft 465 kts 155°
2026-05-05 11:32 36.30461 23.02791 30153 ft 463 kts 155°
2026-05-05 11:32 36.27544 23.04583 29638 ft 461 kts 155°
2026-05-05 11:33 36.24683 23.06343 29169 ft 457 kts 155°
2026-05-05 11:33 36.21880 23.08066 28713 ft 454 kts 155°
2026-05-05 11:33 36.19021 23.09824 28267 ft 451 kts 155°
2026-05-05 11:33 36.16218 23.11542 27855 ft 448 kts 155°
2026-05-05 11:34 36.13431 23.13247 27431 ft 445 kts 155°
2026-05-05 11:34 36.10700 23.14916 27030 ft 443 kts 155°
2026-05-05 11:34 36.07948 23.16597 26636 ft 440 kts 155°
2026-05-05 11:34 36.05216 23.18265 26258 ft 437 kts 155°
2026-05-05 11:35 36.02498 23.19922 25868 ft 434 kts 155°
2026-05-05 11:35 35.99803 23.21568 25485 ft 431 kts 155°
2026-05-05 11:35 35.97123 23.23203 25103 ft 428 kts 155°
2026-05-05 11:35 35.94463 23.24827 24742 ft 425 kts 155°
2026-05-05 11:36 35.91819 23.26437 24350 ft 423 kts 155°
2026-05-05 11:36 35.89191 23.28036 23979 ft 420 kts 155°
2026-05-05 11:36 35.86580 23.29628 23605 ft 417 kts 154°
2026-05-05 11:36 35.83988 23.31209 23160 ft 414 kts 155°
2026-05-05 11:37 35.81412 23.32775 22716 ft 412 kts 155°
2026-05-05 11:37 35.78847 23.34330 22279 ft 409 kts 155°
2026-05-05 11:37 35.76298 23.35870 21863 ft 406 kts 155°
2026-05-05 11:37 35.73769 23.37399 21461 ft 403 kts 154°
2026-05-05 11:38 35.71261 23.38917 21057 ft 400 kts 154°
2026-05-05 11:38 35.68771 23.40423 20669 ft 397 kts 154°
2026-05-05 11:38 35.66299 23.41919 20282 ft 394 kts 154°
2026-05-05 11:38 35.63846 23.43404 19914 ft 391 kts 154°
2026-05-05 11:39 35.61415 23.44875 19559 ft 388 kts 154°
2026-05-05 11:39 35.59000 23.46336 19182 ft 385 kts 154°
2026-05-05 11:39 35.56605 23.47785 18792 ft 383 kts 154°
2026-05-05 11:39 35.54219 23.49227 18407 ft 381 kts 154°
2026-05-05 11:40 35.51848 23.50658 17996 ft 378 kts 154°
2026-05-05 11:40 35.49496 23.52073 17610 ft 375 kts 154°
2026-05-05 11:40 35.47166 23.53472 17234 ft 371 kts 154°
2026-05-05 11:40 35.44854 23.54859 16870 ft 368 kts 154°
2026-05-05 11:41 35.42564 23.56231 16513 ft 365 kts 154°
2026-05-05 11:41 35.40293 23.57590 16167 ft 362 kts 154°
2026-05-05 11:41 35.38043 23.58938 15840 ft 359 kts 154°
2026-05-05 11:41 35.35809 23.60276 15489 ft 356 kts 154°
2026-05-05 11:42 35.33593 23.61608 15177 ft 353 kts 154°
2026-05-05 11:42 35.31401 23.62926 14844 ft 349 kts 154°
2026-05-05 11:42 35.29330 23.64433 14536 ft 344 kts 139°
2026-05-05 11:42 35.27749 23.66581 14238 ft 338 kts 120°
2026-05-05 11:43 35.26819 23.69174 13917 ft 331 kts 101°
2026-05-05 11:43 35.26592 23.71894 13561 ft 323 kts 83°
2026-05-05 11:43 35.27032 23.74551 13198 ft 316 kts 66°
2026-05-05 11:43 35.28062 23.76886 12844 ft 310 kts 51°
2026-05-05 11:44 35.29339 23.79000 12453 ft 308 kts 50°
2026-05-05 11:44 35.30607 23.81107 12094 ft 306 kts 50°
2026-05-05 11:44 35.31864 23.83205 11725 ft 305 kts 50°
2026-05-05 11:44 35.33109 23.85289 11398 ft 302 kts 51°
2026-05-05 11:45 35.34349 23.87361 11096 ft 300 kts 50°
2026-05-05 11:45 35.35576 23.89414 10774 ft 297 kts 51°
2026-05-05 11:45 35.36795 23.91454 10434 ft 296 kts 50°
2026-05-05 11:45 35.38007 23.93479 10120 ft 294 kts 51°
2026-05-05 11:46 35.39205 23.95484 9896 ft 288 kts 51°
2026-05-05 11:46 35.40370 23.97435 9698 ft 281 kts 50°
2026-05-05 11:46 35.41519 23.99361 9411 ft 279 kts 51°
2026-05-05 11:46 35.42659 24.01274 9096 ft 277 kts 51°
2026-05-05 11:47 35.43793 24.03175 8797 ft 275 kts 51°
2026-05-05 11:47 35.44916 24.05060 8495 ft 273 kts 51°
2026-05-05 11:47 35.46030 24.06930 8288 ft 268 kts 52°
2026-05-05 11:47 35.47108 24.08742 8160 ft 259 kts 52°
2026-05-05 11:48 35.49182 24.12235 7909 ft 246 kts 52°
2026-05-05 11:48 35.50177 24.13913 7762 ft 240 kts 52°
2026-05-05 11:48 35.51060 24.15614 7642 ft 235 kts 66°
2026-05-05 11:49 35.51355 24.17556 7513 ft 233 kts 90°
2026-05-05 11:49 35.50961 24.19462 7386 ft 232 kts 114°
2026-05-05 11:49 35.50035 24.21055 7261 ft 226 kts 124°
2026-05-05 11:49 35.49076 24.22544 7132 ft 219 kts 124°
2026-05-05 11:50 35.48457 24.23511 6968 ft 218 kts 124°
2026-05-05 11:50 35.47516 24.24987 6651 ft 220 kts 124°
2026-05-05 11:50 35.46568 24.26475 6332 ft 223 kts 124°
2026-05-05 11:50 35.45610 24.27977 5999 ft 224 kts 124°
2026-05-05 11:51 35.44643 24.29491 5670 ft 226 kts 125°
2026-05-05 11:51 35.43668 24.31015 5348 ft 228 kts 125°
2026-05-05 11:51 35.42768 24.32605 5019 ft 226 kts 108°
2026-05-05 11:51 35.42704 24.34413 4845 ft 208 kts 69°
2026-05-05 11:52 35.43537 24.35762 4503 ft 198 kts 31°
2026-05-05 11:52 35.44819 24.36188 4167 ft 191 kts 355°
2026-05-05 11:52 35.46029 24.35629 3838 ft 186 kts 321°
2026-05-05 11:52 35.46669 24.34326 3517 ft 182 kts 277°
2026-05-05 11:53 35.46624 24.32771 3244 ft 181 kts 275°
2026-05-05 11:53 35.47122 24.31418 3221 ft 178 kts 313°
2026-05-05 11:53 35.47906 24.30228 3219 ft 180 kts 302°
2026-05-05 11:53 35.48455 24.28839 3213 ft 181 kts 295°
2026-05-05 11:54 35.48953 24.27426 3214 ft 181 kts 294°
2026-05-05 11:54 35.49426 24.26039 3203 ft 170 kts 294°
2026-05-05 11:54 35.49844 24.24796 3144 ft 149 kts 295°
2026-05-05 11:54 35.50247 24.23617 2740 ft 147 kts 296°
2026-05-05 11:55 35.50668 24.22521 2430 ft 137 kts 296°
2026-05-05 11:55 35.51027 24.21461 2097 ft 132 kts 293°
2026-05-05 11:55 35.51361 24.20421 1752 ft 134 kts 293°
2026-05-05 11:55 35.51746 24.19311 1450 ft 145 kts 292°
2026-05-05 11:56 35.52123 24.18175 1049 ft 145 kts 291°
2026-05-05 11:56 35.52504 24.17023 645 ft 145 kts 290°
2026-05-05 11:56 35.52849 24.15948 504 ft 122 kts 292°
2026-05-05 11:56 35.53117 24.15139 489 ft 68 kts 292°
2026-05-05 11:57 35.53197 24.14898 489 ft 15 kts 292°
2026-05-05 11:57 35.53240 24.14767 491 ft 17 kts 291°
2026-05-05 11:57 35.53287 24.14623 495 ft 20 kts 291°
2026-05-05 11:57 35.53340 24.14459 489 ft 22 kts 291°
2026-05-05 11:58 35.53393 24.14295 488 ft 17 kts 291°
2026-05-05 11:58 35.53475 24.14281 498 ft 13 kts 22°
2026-05-05 11:58 35.53514 24.14301 488 ft 6 kts 22°
2026-05-05 11:58 35.53576 24.14331 498 ft 13 kts 20°
2026-05-05 11:59 35.53669 24.14360 488 ft 14 kts 339°
2026-05-05 11:59 35.53708 24.14273 492 ft 12 kts 289°
2026-05-05 11:59 35.53740 24.14174 490 ft 13 kts 292°
2026-05-05 11:59 35.53769 24.14087 489 ft 8 kts 292°
2026-05-05 12:00 35.53789 24.14032 498 ft 5 kts 310°
2026-05-05 12:00 35.53816 24.14033 494 ft 2 kts 19°
2026-05-05 12:00 35.53831 24.14040 498 ft 3 kts 21°
2026-05-05 12:00 35.53850 24.14050 489 ft 3 kts 21°
2026-05-05 12:01 35.53869 24.14059 493 ft 1 kts 21°
2026-05-05 12:01 35.53872 24.14060 494 ft 0 kts 21°